Location: Recife
(8.0585°S, 34.8848°W)
Time: 12:23:07
(UTC-03:00)

Transit 4A - Pass Details

Date: 18 April 2026
Orbit: 861 x 980 km, 66.8° (Epoch: 12 May)

Event Time Altitude Azimuth Distance (km) Brightness Sun altitude
Rises 12:05:27 0° 212° (SSW) 3,444 10.8 67.7°
Reaches altitude 10° 12:08:00 10° 217° (SW) 2,509 10.2 67.4°
Maximum altitude 12:13:29 45° 289° (WNW) 1,173 9.8 66.6°
Drops below altitude 10° 12:19:04 10° 1° (N) 2,545 10.6 65.8°
Sets 12:21:41 0° 7° (N) 3,498 11.1 65.4°
